Other Surface Observations
Issued by NWS

Home | Current Version | Previous Version | Text Only | Print | Product List | Glossary On
Versions: 1 2 3 4 5 6 7 8 9 10 11 12 13 14 15 16 17 18 19 20 21 22 23 24 25 26 27 28 29 30 31 32 33 34 35 36 37 38 39 40 41 42 43 44 45 46 47 48 49 50
899
SXUS52 KTAE 270205
OSOTAE
OSOTAE
North Florida/South Alabama/Southwest Georgia Weather Roundup
National Weather Service Tallahassee Florida
1000 PM EDT TUE JUL 26 2016

Note: "fair" indicates few or no clouds below 12,000 feet with no
significant weather and/or obstructions to visibility.

!FLZ017-115-028-034-025-270300
...North Florida...

CITY           SKY/WX    TMP DP  RH WIND       PRES   REMARKS
TALLAHASSEE    PTCLDY    82  75  79 CALM      30.06R
APALACHICOLA   PTCLDY    80  79  96 CALM      30.05R
PERRY          CLEAR     80  76  86 CALM      30.07R
CROSS CITY       N/A     81  74  79 CALM      30.06R
JACKSONVILLE   MOCLDY    77  76  96 S3        30.06R
$$

!FLZ112-006-005-002-011-270300
...Florida Panhandle...

CITY           SKY/WX    TMP DP  RH WIND       PRES   REMARKS
MARIANNA       PTCLDY    77  76  96 S3        30.04R
BONIFAY        CLOUDY    77  75  93 CALM      30.05R
PANAMA CITY NW LGT RAIN  78  75  90 S8        30.04R FOG
TYNDALL AFB    PTCLDY    84  75  74 W16       30.05R HX  92
TYND DRONE APT NOT AVBL
DE FUNIAK SPR  FAIR      74  74 100 CALM      30.04R
EGLIN AFB      PTCLDY    81  74  79 SW7       30.02R
DESTIN         CLEAR     85  77  77 SW7       30.02R HX  95
HURLBURT       LGT RAIN  81  73  76 SW8       30.01R
CRESTVIEW      PTCLDY    77  74  90 CALM      30.03S
PENSACOLA      MOCLDY    80  74  81 SW9       30.01R
$$

!ALZ063-066-270300
...South Alabama...

CITY           SKY/WX    TMP DP  RH WIND       PRES   REMARKS
DOTHAN         LGT RAIN  78  74  87 S6        30.08R
OZARK CAIRNS   PTCLDY    77  76  99 SE3       30.03S
FT RUCKER HELI PTCLDY    77  75  93 S5        30.02S
RUCKER HELI 3  FAIR      79  74  85 S6        30.04S
RUCKER HELI 2  MOCLDY    78  76  93 S3        30.03R
FLORALA APT    MOCLDY    76  74  93 S3        30.05R
ANDALUSIA      MOCLDY    81  75  82 CALM      30.02R
TROY           CLEAR     76  75  97 S5        30.03R
EUFALA         FAIR      79  75  87 SW3       30.03R
MOBILE         PTCLDY    77  75  93 S7        29.99R
$$

!GAZ120>161-270300
...Southwest and South Central Georgia...

CITY           SKY/WX    TMP DP  RH WIND       PRES   REMARKS
THOMASVILLE      N/A     79  77  94 CALM      30.08R
BAINBRIDGE     PTCLDY    77  73  88 CALM      30.06R
MOODY AFB      CLEAR     82  73  74 W8        30.06R
VALDOSTA       CLEAR     79  75  87 CALM      30.07R
MOULTRIE       CLEAR     79  72  78 CALM      30.08R
BLAKELY        PTCLDY    81  73  78 CALM      30.05R
ALBANY         CLEAR     78  75  90 S3        30.07R
TIFTON         FAIR      80  74  83 SW3       30.06R
FITZGERALD     MOCLDY    86  78  75 W5        30.08R HX  98
CORDELE        FAIR      83  74  73 SW6       30.06R HX  90
AMERICUS       FAIR      79  70  73 SW5       30.07R
HOMERVILLE     FAIR      82  75  78 W6        30.06R
$$

!GMZ750-755-770-775-270300
...Coastal and Buoy Obs...

STATION/POSITION TIME  TEMP    WIND        PRES    VSBY  WAVE
                       AIR SEA DIR/SP/G                  HT/PER
                 (UTC) (F)     (DEG/KT/KT) (MB)    (MI)  (FT/S)
KEATON BEACH     0200   86     250/  8/  9 1017.6R
CEDAR KEY        0100   85     300/  4/  6 1017.9R
C TOWER          0200   85     210/ 11/ 12 1018.4R
APALACHICOLA BUO 0150   86 87  210/  8/  8 1017.5R         3/ 7
PANAMA CITY BUOY 0050   86 87  210/ 12/ 14 1017.3          4/ 7
MOBILE BUOY      0100   82 87  240/ 17/ 21 1015.8R
ORANGE BCH AL BU 0150   82 87  230/ 19/ 23 1015.7R         7/ 7
$$




USA.gov is the U.S. government's official web portal to all federal, state and local government web resources and services.